Wind_Speed
18 19 20 21 19 12 10 10 9 8 7 6 6 6 6 5 5 5 6 7 7 7 7 7 6 5 5 5 5 6 6 7 7 7 7 7 8 8 9 10 9 10 10 10 10 10 10 9 9
18 18 22 21 13 10 10 9 9 8 7 7 6 6 6 6 6 6 6 7 7 7 7 7 6 5 5 5 5 6 6 7 6 7 7 8 8 8 9 9 10 10 10 10 11 10 10 8 8
20 21 22 13 9 10 10 10 9 8 8 8 7 7 7 7 7 6 6 7 7 7 7 7 6 6 5 5 6 6 6 6 6 6 7 7 8 8 8 9 10 10 10 11 11 10 10 9 9
21 24 17 10 10 11 11 10 10 9 8 8 8 7 7 7 7 6 6 6 7 7 7 7 6 6 5 5 5 5 6 6 6 6 6 7 7 7 8 8 9 9 10 10 10 10 10 9 9
23 21 13 11 12 12 12 11 10 10 9 9 8 8 8 7 7 7 7 7 7 7 7 6 6 5 5 4 5 5 5 5 6 6 6 6 6 7 7 8 8 9 9 9 9 9 9 9 8
22 16 10 11 11 11 11 11 11 11 10 9 9 8 8 8 8 8 7 7 7 7 7 7 6 5 5 4 4 4 5 5 6 6 6 6 6 7 7 7 8 8 8 8 8 8 8 8 8
18 12 9 10 11 11 11 11 12 12 11 11 10 9 9 8 8 8 7 7 7 8 8 7 6 5 4 4 4 4 4 5 5 6 6 6 6 6 6 6 7 7 8 8 8 8 8 8 8
14 10 8 9 10 11 11 11 12 13 13 12 11 10 9 9 9 9 9 9 8 8 8 7 6 6 5 4 3 4 4 5 5 5 5 5 6 5 6 6 6 7 7 7 8 8 8 7 7
11 8 6 7 9 10 11 12 13 14 14 14 13 12 11 10 10 10 10 9 9 8 8 8 7 6 5 4 4 3 4 4 5 5 5 5 5 5 5 5 5 6 6 7 7 7 7 7 6
9 7 4 5 8 10 12 13 14 15 15 15 14 13 12 11 11 11 11 10 10 9 8 8 7 7 6 5 4 3 3 4 4 4 4 4 4 4 4 5 5 5 6 6 6 6 6 6 5
6 6 5 5 7 10 12 14 14 14 15 15 14 14 14 12 11 11 11 11 10 9 8 7 7 7 7 6 4 3 3 3 3 3 3 3 3 4 4 4 5 5 5 5 5 5 5 4 4
5 6 6 6 8 9 11 12 12 13 15 15 15 14 14 14 13 12 11 11 10 10 9 8 7 7 6 5 5 4 3 3 3 3 3 2 2 2 3 3 3 4 4 4 4 4 3 3 4
5 6 7 7 8 8 9 11 12 13 14 14 15 15 15 15 14 13 12 12 11 10 10 9 8 7 7 6 5 4 4 4 4 3 3 3 1 1 1 2 2 3 3 3 3 2 3 3 3
4 5 6 7 7 8 7 10 13 13 14 14 15 15 16 16 15 14 13 12 12 11 10 9 9 8 7 6 5 5 4 4 4 4 4 3 2 1 1 1 2 2 2 2 1 1 1 2 1
4 4 5 7 8 8 9 10 12 13 13 14 14 15 15 15 15 14 14 13 12 11 11 10 9 8 7 6 5 5 5 4 4 4 4 3 3 2 1 1 1 2 2 2 1 1 1 1 1
3 3 3 6 7 7 9 9 11 12 13 14 14 14 15 14 14 15 14 14 13 12 12 11 10 9 7 7 6 6 5 5 4 4 4 3 3 2 1 1 1 2 2 2 2 1 1 2 2
0 1 1 5 6 5 6 7 9 11 12 13 14 14 15 14 14 15 15 14 14 13 13 11 10 9 7 7 7 7 6 5 5 4 4 4 3 2 2 1 2 2 3 3 3 2 2 3 3
3 3 3 4 5 3 5 6 9 11 12 13 13 14 14 14 13 14 14 15 15 14 13 12 9 8 7 7 7 7 6 6 5 5 4 4 3 2 2 2 2 2 3 3 4 4 4 4 5
6 5 5 6 6 3 4 7 8 10 11 12 12 12 13 13 13 14 14 14 15 15 13 12 11 9 8 7 7 6 6 6 6 5 5 5 4 3 3 3 2 3 3 4 5 6 6 6 6
8 6 6 6 7 4 5 6 8 11 12 11 12 11 12 13 14 14 14 15 15 15 14 12 12 10 9 8 7 6 6 7 6 6 4 4 4 4 4 4 4 5 5 6 7 7 8 8 8
10 8 8 8 7 4 7 9 9 10 12 12 11 11 12 12 13 13 14 14 15 15 15 13 12 11 9 8 7 7 7 7 7 6 5 4 4 4 5 5 5 6 6 7 7 8 8 9 9
11 10 10 9 7 4 7 10 11 11 11 12 11 11 12 12 12 13 13 13 14 15 15 14 12 12 12 10 9 8 7 7 7 6 5 5 5 5 6 6 5 6 7 7 8 8 9 9 10
13 12 11 9 8 6 7 9 13 10 10 11 11 10 11 12 12 12 13 13 14 14 15 15 14 13 12 11 10 9 8 8 7 7 6 5 6 6 6 6 6 7 7 8 8 9 9 10 11
15 12 11 11 10 9 7 8 12 10 9 9 10 9 10 10 11 12 12 13 14 14 14 15 14 14 13 11 11 11 10 9 8 7 6 6 6 6 7 7 7 8 8 8 9 9 10 11 11
16 13 11 10 9 9 7 8 12 14 12 12 11 10 10 10 11 11 12 12 13 14 14 14 14 13 12 12 11 11 11 10 9 8 7 7 7 7 8 8 8 9 9 9 9 9 10 10 11
18 16 14 11 9 9 8 10 13 16 15 13 12 10 10 10 11 11 12 12 13 14 14 14 14 13 13 12 11 11 11 11 10 9 8 8 8 8 8 9 9 10 10 10 10 10 11 11 12
19 19 15 14 12 13 12 10 13 17 17 15 14 12 11 10 10 11 12 13 13 14 14 14 14 13 13 13 13 12 12 11 11 10 9 9 9 9 9 10 10 10 10 11 10 11 11 12 12
21 19 18 18 16 14 13 12 14 16 17 15 14 13 12 11 10 11 11 13 13 13 14 14 14 14 14 14 14 13 13 12 12 11 10 10 10 10 11 10 11 11 10 10 11 12 12 12 12
23 21 21 20 18 15 15 14 14 17 16 16 15 12 12 12 12 11 12 13 13 13 13 14 14 15 15 15 14 14 13 13 13 12 11 11 11 11 11 11 11 11 11 11 12 12 13 13 14
23 23 21 22 22 19 17 16 15 15 15 17 15 13 13 12 13 13 13 13 12 13 13 14 15 15 15 15 15 15 14 14 13 12 12 12 12 12 12 11 12 12 12 12 12 12 13 14 14
Wind_Direction
73 69 64 57 48 38 40 44 46 45 46 49 51 53 55 53 57 59 61 62 61 56 58 59 56 55 59 68 77 84 87 90 89 89 90 91 90 90 89 89 88 88 89 91 90 96 100 98 95
73 67 60 51 37 29 39 41 41 41 41 43 47 48 47 49 50 51 53 59 57 55 55 54 52 54 56 67 78 82 85 87 86 87 90 90 88 87 86 87 90 90 89 92 91 92 94 96 95
70 63 60 49 27 31 36 39 37 37 36 38 42 43 45 47 49 49 52 57 55 53 52 52 50 50 53 67 76 77 79 83 82 84 89 88 87 88 86 88 89 89 88 88 90 91 91 89 93
68 62 54 38 35 38 42 40 37 36 33 36 40 40 42 45 47 49 50 53 49 52 55 51 49 51 58 70 75 77 80 82 81 82 87 88 87 85 86 88 91 91 92 91 90 91 90 87 88
67 65 42 27 33 38 39 39 38 35 36 38 41 40 40 43 45 46 46 47 51 53 50 47 51 58 59 62 68 78 81 80 79 81 85 88 89 88 89 93 95 94 93 93 94 95 93 91 90
68 59 32 25 32 40 41 39 39 38 40 44 43 43 42 42 42 46 47 47 51 52 49 47 50 55 54 52 62 74 76 76 75 76 84 88 92 93 94 96 97 96 94 92 96 96 96 93 89
73 66 37 22 29 37 42 39 38 38 39 40 42 45 44 41 40 44 47 46 47 50 51 49 51 53 52 48 53 63 70 71 71 72 78 84 90 92 94 96 99 98 96 95 96 94 93 92 90
75 73 51 23 23 37 39 39 39 38 37 38 41 45 46 45 43 45 48 45 45 45 47 45 45 47 44 42 45 56 60 61 64 67 71 81 90 92 94 95 98 101 100 98 98 96 95 93 91
71 75 52 24 19 35 39 39 41 39 39 42 43 46 46 47 47 47 48 46 44 41 42 41 39 39 38 41 49 53 52 53 56 60 68 81 90 92 93 96 99 102 101 99 98 96 92 90 89
82 83 52 27 25 35 38 39 39 37 39 43 45 47 48 48 48 47 45 43 41 40 39 39 37 37 38 45 50 52 50 47 48 55 65 81 89 87 87 92 100 104 103 101 99 96 91 88 89
73 71 52 36 33 35 39 41 37 35 38 41 43 44 44 44 45 46 44 42 40 36 33 34 35 35 37 42 47 53 47 42 41 44 57 68 72 77 84 88 97 103 105 105 103 97 95 89 85
76 67 61 52 47 40 43 43 39 36 39 40 41 43 43 42 43 43 42 40 39 36 35 33 30 29 32 34 34 42 36 19 17 26 36 40 51 64 82 99 109 110 115 119 110 101 98 93 86
68 59 51 46 45 43 44 43 38 33 39 39 40 40 41 41 41 40 38 36 36 35 32 30 29 27 27 26 23 25 21 16 11 3 7 8 6 54 90 124 134 130 133 130 115 95 95 81 79
88 68 48 33 27 36 33 38 32 31 35 35 36 36 37 38 38 37 36 32 31 31 28 26 23 23 19 16 16 15 10 6 2 356 353 351 334 326 285 184 174 176 176 167 142 102 67 59 44
86 57 45 20 15 18 21 27 22 20 23 29 32 33 32 32 34 34 34 30 25 24 23 20 18 16 14 15 17 10 6 5 357 353 351 351 345 331 275 200 222 227 222 231 225 210 323 355 343
71 41 19 354 359 5 21 19 14 11 15 22 27 28 27 28 31 32 31 28 23 22 18 16 17 16 18 19 22 18 6 3 356 351 354 352 349 344 325 249 249 242 240 243 245 263 288 317 322
105 295 267 325 343 355 2 7 5 4 10 17 21 22 25 29 29 27 26 24 21 17 16 14 18 20 19 16 15 12 7 5 1 356 350 349 347 346 346 325 280 275 263 262 264 278 284 299 306
202 232 246 281 300 326 341 0 0 358 2 9 13 16 21 27 27 24 21 19 16 14 13 15 17 19 16 13 9 8 2 3 0 355 350 350 342 339 354 350 325 297 283 274 272 281 286 292 297
206 228 240 262 280 286 304 341 359 351 356 358 3 10 16 22 24 21 19 17 15 13 11 13 14 15 13 6 0 1 358 358 356 348 343 353 353 342 326 326 328 312 297 293 288 285 287 290 295
208 215 241 270 286 293 301 322 351 351 352 352 355 3 12 16 18 19 17 16 14 13 12 12 11 12 11 8 3 358 356 354 351 349 344 344 346 337 328 315 314 309 303 298 293 290 290 292 294
211 218 227 242 263 289 300 303 315 334 338 345 348 355 7 9 11 13 13 14 12 11 12 11 9 9 8 7 2 356 352 351 348 346 340 334 333 324 316 314 309 302 299 300 298 296 292 288 294
212 222 230 233 247 263 284 292 298 306 326 339 344 348 356 2 3 7 10 11 11 11 11 9 9 6 4 0 357 354 352 349 345 344 334 323 319 315 315 314 312 304 298 300 300 294 291 293 299
214 221 226 235 247 252 261 279 293 301 309 329 336 343 348 355 358 1 5 8 8 9 9 9 7 4 359 357 357 355 352 348 343 337 328 321 318 313 314 313 314 307 298 295 297 295 292 294 297
217 220 229 236 247 254 254 273 288 289 296 308 319 330 338 344 348 353 358 1 3 4 4 4 3 3 0 357 356 355 352 347 341 333 324 320 317 313 311 310 307 304 301 297 295 298 295 295 294
218 218 233 252 255 258 252 263 281 286 296 297 303 314 325 336 343 345 348 351 355 359 360 0 360 359 357 356 353 354 353 348 344 336 325 320 316 313 313 310 304 303 302 298 294 298 300 299 301
217 219 226 239 256 267 246 243 264 282 290 294 296 301 313 327 335 340 342 344 349 353 355 357 356 355 354 354 353 352 353 353 348 339 332 325 318 316 318 315 308 305 305 306 302 298 298 301 303
220 219 223 238 248 260 252 247 261 276 287 295 296 297 304 317 325 331 338 340 343 347 350 355 357 357 355 353 350 348 348 349 346 341 335 332 324 321 320 314 311 311 309 309 307 305 302 300 303
222 223 223 229 236 246 260 254 257 267 282 294 295 293 296 307 313 320 329 336 337 341 346 352 357 358 356 354 351 347 347 346 343 338 336 332 326 321 319 314 309 308 309 309 310 310 311 310 309
223 222 224 227 227 241 256 258 263 261 273 281 287 287 285 296 306 312 324 327 331 334 338 345 350 353 353 351 350 349 347 343 339 338 336 333 328 322 319 314 313 310 309 311 310 311 313 312 309
229 226 228 230 228 229 243 258 259 268 270 273 277 280 285 289 301 310 314 318 324 331 336 339 344 346 347 347 348 347 344 343 339 334 332 332 330 326 322 319 316 316 314 312 313 313 313 313 313
Height
5905 5904 5902 5901 5901 5903 5901 5900 5898 5897 5896 5895 5894 5893 5892 5892 5892 5894 5890 5889 5889 5889 5888 5888 5888 5887 5887 5887 5886 5886 5886 5885 5885 5884 5884 5883 5883 5883 5883 5883 5882 5882 5883 5883 5884 5884 5884 5885 5885
5908 5906 5903 5904 5907 5905 5904 5902 5901 5900 5898 5897 5896 5896 5894 5893 5893 5893 5891 5891 5891 5890 5890 5889 5889 5889 5888 5888 5888 5887 5887 5887 5886 5886 5886 5885 5885 5885 5885 5884 5884 5885 5885 5885 5885 5886 5886 5886 5887
5910 5908 5907 5911 5910 5908 5906 5905 5903 5902 5900 5899 5898 5898 5896 5895 5895 5894 5893 5892 5892 5891 5891 5890 5890 5890 5890 5889 5889 5889 5889 5888 5888 5888 5887 5887 5887 5887 5887 5887 5887 5887 5887 5887 5887 5887 5888 5888 5889
5912 5910 5914 5916 5912 5910 5909 5907 5905 5904 5902 5901 5900 5899 5898 5897 5896 5895 5895 5894 5893 5893 5892 5892 5892 5891 5891 5891 5891 5890 5890 5890 5889 5889 5889 5889 5889 5889 5889 5888 5889 5889 5889 5889 5889 5889 5890 5890 5890
5914 5914 5919 5917 5915 5913 5911 5909 5908 5906 5904 5903 5902 5901 5899 5899 5898 5897 5896 5895 5895 5894 5894 5893 5893 5893 5893 5892 5892 5892 5892 5891 5891 5891 5890 5890 5890 5890 5890 5890 5890 5890 5891 5891 5891 5891 5891 5892 5892
5916 5921 5923 5920 5918 5916 5914 5912 5910 5908 5907 5905 5903 5902 5901 5901 5899 5898 5898 5897 5896 5896 5895 5895 5894 5894 5894 5894 5893 5893 5893 5893 5892 5892 5892 5892 5892 5892 5892 5892 5892 5892 5892 5892 5893 5893 5893 5893 5894
5923 5926 5926 5923 5920 5918 5917 5915 5913 5911 5909 5907 5905 5904 5903 5902 5901 5900 5899 5898 5898 5897 5897 5896 5896 5896 5895 5895 5895 5894 5894 5894 5894 5894 5893 5893 5893 5893 5893 5893 5893 5894 5894 5894 5894 5894 5895 5895 5895
5927 5928 5928 5925 5923 5921 5919 5917 5915 5913 5911 5909 5907 5906 5905 5905 5903 5902 5901 5900 5899 5899 5898 5898 5897 5897 5897 5896 5896 5896 5896 5895 5895 5895 5895 5895 5895 5895 5895 5895 5895 5895 5895 5896 5896 5896 5896 5897 5897
5931 5932 5930 5928 5925 5923 5921 5919 5917 5915 5913 5911 5909 5908 5908 5906 5905 5904 5903 5902 5901 5900 5900 5899 5899 5898 5898 5897 5897 5897 5897 5897 5897 5896 5896 5896 5896 5896 5896 5896 5896 5897 5897 5897 5897 5897 5898 5898 5898
5933 5933 5931 5929 5927 5925 5923 5921 5919 5917 5916 5914 5912 5911 5910 5908 5907 5906 5905 5904 5903 5902 5902 5901 5900 5900 5899 5899 5898 5898 5898 5898 5898 5898 5897 5897 5897 5897 5897 5898 5898 5898 5898 5898 5899 5899 5899 5899 5900
5934 5934 5932 5930 5928 5927 5925 5923 5922 5920 5918 5917 5915 5914 5912 5910 5909 5908 5907 5906 5905 5904 5903 5902 5901 5901 5900 5900 5900 5900 5899 5899 5899 5899 5899 5898 5899 5899 5899 5899 5899 5899 5899 5900 5900 5900 5900 5901 5901
5936 5935 5934 5932 5931 5929 5928 5926 5925 5923 5921 5920 5918 5916 5914 5912 5911 5910 5909 5908 5907 5906 5905 5904 5903 5902 5901 5901 5901 5901 5900 5900 5900 5899 5899 5899 5899 5900 5900 5900 5900 5900 5901 5901 5901 5902 5902 5902 5902
5937 5936 5935 5934 5933 5931 5930 5929 5927 5925 5923 5922 5920 5918 5916 5915 5913 5912 5911 5909 5908 5907 5906 5905 5904 5903 5903 5902 5902 5902 5901 5901 5900 5900 5900 5900 5900 5900 5900 5901 5901 5901 5902 5902 5902 5903 5903 5903 5903
5937 5937 5936 5935 5934 5933 5931 5930 5929 5928 5926 5924 5922 5920 5918 5917 5915 5914 5913 5911 5910 5909 5908 5907 5906 5905 5904 5903 5903 5903 5902 5902 5901 5901 5900 5900 5900 5900 5901 5901 5902 5902 5902 5903 5903 5904 5904 5903 5904
5937 5938 5938 5937 5936 5935 5933 5932 5931 5929 5928 5926 5924 5922 5920 5919 5917 5916 5915 5913 5912 5910 5909 5908 5907 5906 5905 5904 5904 5904 5903 5902 5902 5901 5901 5900 5900 5900 5901 5901 5902 5902 5903 5903 5904 5904 5904 5904 5904
5939 5940 5940 5940 5938 5937 5936 5934 5933 5931 5930 5928 5926 5924 5922 5921 5919 5918 5916 5915 5913 5912 5910 5909 5907 5907 5906 5905 5905 5904 5904 5903 5902 5902 5901 5901 5900 5901 5901 5901 5902 5902 5903 5903 5904 5904 5904 5904 5904
5941 5942 5942 5942 5940 5939 5937 5936 5934 5933 5931 5929 5928 5926 5924 5922 5921 5919 5917 5916 5915 5913 5911 5909 5908 5907 5906 5906 5906 5905 5904 5904 5903 5902 5902 5901 5901 5901 5901 5901 5902 5902 5902 5903 5903 5904 5904 5904 5903
5942 5943 5944 5943 5941 5940 5939 5938 5935 5934 5933 5931 5929 5928 5926 5924 5922 5921 5919 5917 5916 5914 5912 5910 5909 5908 5907 5907 5906 5905 5905 5904 5903 5902 5902 5902 5901 5901 5901 5902 5902 5902 5902 5903 5903 5903 5903 5903 5903
5941 5943 5943 5943 5941 5940 5939 5938 5937 5936 5934 5933 5931 5929 5928 5926 5924 5922 5921 5919 5917 5915 5913 5911 5910 5909 5908 5907 5906 5906 5905 5904 5903 5903 5902 5902 5901 5901 5901 5902 5902 5902 5902 5902 5902 5902 5902 5902 5901
5941 5942 5943 5943 5941 5940 5939 5939 5938 5937 5935 5934 5932 5931 5929 5927 5926 5924 5922 5920 5918 5916 5914 5912 5911 5910 5909 5907 5907 5906 5905 5904 5903 5902 5902 5902 5902 5901 5901 5901 5901 5901 5901 5901 5901 5901 5901 5900 5900
5939 5941 5942 5943 5942 5941 5940 5939 5938 5937 5936 5935 5933 5931 5930 5928 5927 5925 5923 5921 5919 5917 5915 5913 5912 5910 5909 5908 5907 5906 5905 5904 5903 5902 5902 5902 5901 5901 5901 5901 5901 5900 5900 5900 5899 5899 5899 5898 5898
5938 5940 5940 5941 5941 5941 5942 5940 5938 5937 5936 5935 5934 5932 5930 5929 5927 5926 5924 5922 5920 5918 5916 5914 5913 5911 5909 5908 5907 5906 5905 5904 5903 5902 5902 5901 5901 5901 5901 5900 5900 5899 5899 5898 5898 5897 5897 5896 5896
5935 5937 5938 5939 5939 5940 5941 5940 5938 5936 5935 5935 5934 5933 5931 5929 5928 5926 5925 5923 5921 5919 5917 5915 5913 5911 5910 5908 5907 5906 5905 5904 5903 5902 5901 5901 5900 5900 5900 5899 5899 5898 5898 5897 5896 5896 5895 5895 5894
5932 5935 5936 5936 5938 5939 5940 5940 5937 5935 5935 5935 5934 5933 5932 5930 5928 5927 5925 5923 5922 5920 5918 5916 5914 5912 5910 5908 5907 5906 5904 5903 5902 5901 5901 5900 5900 5899 5898 5898 5897 5897 5896 5896 5895 5894 5893 5892 5892
5930 5933 5935 5935 5936 5937 5938 5939 5938 5935 5935 5934 5933 5933 5932 5930 5929 5927 5925 5924 5922 5921 5918 5916 5914 5912 5910 5909 5907 5906 5904 5902 5901 5900 5900 5899 5899 5898 5897 5896 5896 5895 5894 5893 5893 5892 5891 5890 5889
5926 5930 5933 5935 5936 5937 5937 5938 5937 5934 5934 5933 5932 5931 5931 5930 5928 5927 5925 5924 5922 5921 5919 5916 5914 5912 5910 5909 5907 5905 5903 5902 5900 5899 5898 5898 5897 5896 5896 5895 5894 5893 5892 5891 5890 5889 5889 5888 5887
5923 5926 5930 5934 5935 5935 5934 5935 5934 5933 5932 5932 5931 5930 5929 5929 5927 5926 5925 5923 5922 5921 5919 5916 5913 5912 5911 5909 5907 5905 5903 5901 5899 5898 5897 5896 5895 5895 5894 5893 5892 5891 5890 5890 5889 5887 5887 5886 5884
5919 5923 5927 5929 5931 5932 5933 5932 5931 5930 5930 5930 5929 5928 5927 5927 5926 5925 5924 5923 5921 5920 5918 5916 5914 5912 5910 5908 5906 5904 5902 5900 5898 5897 5896 5895 5894 5893 5892 5891 5890 5889 5888 5887 5886 5885 5884 5883 5882
5915 5918 5921 5924 5927 5930 5930 5931 5927 5926 5927 5927 5927 5926 5925 5924 5923 5922 5922 5922 5920 5919 5918 5916 5914 5912 5910 5908 5906 5903 5901 5899 5897 5896 5895 5894 5893 5891 5890 5889 5888 5887 5886 5885 5884 5883 5882 5880 5879
5910 5914 5917 5920 5922 5924 5926 5929 5924 5925 5924 5923 5924 5924 5923 5922 5921 5921 5921 5920 5919 5917 5916 5915 5913 5911 5909 5907 5905 5903 5901 5899 5897 5895 5894 5893 5891 5890 5889 5887 5886 5885 5884 5883 5881 5880 5879 5878 5876